Regional Weather Roundup
Issued by NWS Charleston, SC

Current Version | Previous Version | Text Only | Print | Product List | Glossary Off
Versions: 1 2 3 4 5 6 7 8 9 10 11 12 13 14 15 16 17 18 19 20 21 22 23 24 25 26 27 28 29 30 31 32 33 34 35 36 37 38 39 40 41 42 43 44 45 46 47 48 49 50

890
ASUS42 KCHS 251727
RWRCHS

REGIONAL WEATHER ROUNDUP
NATIONAL WEATHER SERVICE CHARLESTON SC
100 PM EDT THU MAY 25 2017

NOTE: "FAIR" INDICATES FEW OR NO CLOUDS BELOW 12,000 FEET WITH NO
SIGNIFICANT WEATHER AND/OR OBSTRUCTIONS TO VISIBILITY.

NOT ALL STATIONS ARE QUALITY CONTROLLED. USE DATA WITH CAUTION...
ESPECIALLY DEWPOINT OBSERVATIONS.

SCZ027-030-031-034>040-042>050-251800-
...SOUTHEAST SOUTH CAROLINA...

CITY           SKY/WX    TMP DP  RH WIND       PRES   REMARKS
N CHARLESTON   PTSUNNY   72  50  45 W16G26    29.71S
WATERFRONT PRK   N/A     72  56  57 W10G22    29.69S
JOHNS ISLAND   PTSUNNY   73  54  49 W15G24    29.72R
PINOPOLIS        N/A     70  57  64 W16       29.61F
MONCKS CORNER  FAIR      72  52  49 SW10G20   29.71R
SUMMERVILLE    PTSUNNY   72  54  53 SW15G22   29.72S
BEAUFORT MCAS  MOSUNNY   75  55  49 W22G28    29.74S
BEAUFORT ARPT  NOT AVBL
HILTON HEAD IS MOSUNNY   73  54  49 SW17G29   29.76S
WALTERBORO     PTSUNNY   72  54  53 W13G23    29.74R
ALLENDALE      FAIR      72  52  49 W9G20     29.73R

...SOUTHERN MIDLANDS AND PEE DEE...

CITY           SKY/WX    TMP DP  RH WIND       PRES   REMARKS
GEORGETOWN     PTSUNNY   73  52  46 W15G23    29.68F
KINGSTREE      LGT RAIN  64  55  72 SW12      29.67S
ORANGEBURG     TSTM      63  57  81 W12G32    29.72R
BARNWELL       FAIR      72  55  56 W15G24    29.73R
AIKEN          FAIR      68  54  60 W21G26    29.76R
MANNING        FAIR      64  63  94 SW20      29.70R
COLUMBIA       TSTM      64  58  80 W16G28    29.69R
SUMTER         MOSUNNY   64  59  82 SW15      29.65R
FLORENCE       PTSUNNY   71  53  52 W16G26    29.64F
MYRTLE BEACH   PTSUNNY   75  52  43 SW17G28   29.66S
N MYRTLE BEACH MOSUNNY   77  52  41 W18G30    29.64F

$$

GAZ063-065-086>088-099>101-113>116-118-119-134>141-150-251800-
...SOUTHEAST GEORGIA...

CITY           SKY/WX    TMP DP  RH WIND       PRES   REMARKS
SAVANNAH ARPT  MOSUNNY   77  50  38 W23G33    29.76F
HUNTER AAF     MOSUNNY   75  59  58 W15G25    29.74S
FORT STEWART   PTSUNNY   73  50  43 W20G30    29.77R
STATESBORO     MOSUNNY   73  53  49 W16G22    29.78S
SYLVANIA       MOSUNNY   72  56  57 NW16G22   29.77S
CLAXTON        FAIR      73  57  58 W18       29.79S

...CSRA...CENTRAL AND FAR SOUTHEAST GEORGIA...

CITY           SKY/WX    TMP DP  RH WIND       PRES   REMARKS
THOMSON        PTSUNNY   70  52  52 NW14G21   29.80S
AUGUSTA-BUSH   MOSUNNY   74  53  48 W15G25    29.73R
AUGUSTA-DANIEL MOSUNNY   71  51  49 SW12G24   29.74R
SWAINSBORO     PTSUNNY   72  54  53 W12G21    29.80R
VIDALIA        PTSUNNY   72  54  53 W12G17    29.81R
EASTMAN        PTSUNNY   73  38  28 NW14G22   29.84S
HAZLEHURST     FAIR      74  53  47 W10G18    29.81S
ALMA           MOSUNNY   75  51  43 W17G25    29.82R
WAYCROSS       SUNNY     79  53  41 W16G23    29.82S
JESUP          FAIR      77  46  33 NW20G29   29.81R
BAXLEY         FAIR      73  55  53 W12G22    29.81S
BRUNSWICK      MOSUNNY   77  55  47 W17G28    29.81S
SAINT SIMONS   SUNNY     77  52  41 W20G28    29.80S

$$

SCZ027-028-034-036>038-045-046-048>050-GAZ119-141-251800-
...LAKE AND SUPPLEMENTAL COASTAL OBSERVATIONS...

STATION/POSITION TIME  TEMP    WIND        PRES    WAVE   SWELL
                       AIR SEA DIR/SP/G            HT/PER HT/PER/DIR
                 (UTC) (F)     (DEG/KT/KT) (MB)    (FT/S) (FT/S/D)
WINYAH BAY       1645   72     250/ 13     1004.0S
LAKE MURRAY      1720   66     240/ 16/ 24 1004.7R
ACE BASIN NERRS  1645   72     250/  7     1007.0S
FORT PULASKI     1700   72     270/ 16/ 24 1007.9
SAPELO ISLAND    1700   74     260/ 19     1009.0

$$

ANZ835-935-AMZ111-154-330-350-352-354-370-450-454-472-251800-
...C-MAN AND BUOY OBSERVATIONS...

STATION/POSITION TIME  TEMP    WIND        PRES    WAVE   SWELL
                       AIR SEA DIR/SP/G            HT/PER HT/PER/DIR
                 (UTC) (F)     (DEG/KT/KT) (MB)    (FT/S) (FT/S/D)
BUOY 41004       1710   72 75  240/ 27/ 41 1006.4
BUOY 41008       1650   72 77  250/ 21/ 25 1008.2R   4/ 4   2/140/ 7
FOLLY BEACH CMAN 1700   72     250/ 13/ 17 1006.8S
CAPERS NEARSHORE 1708   77 77  260/ 19/ 25 1005.5R
FRIPP NEARSHORE  1708   72 77  260/ 21/ 31 1006.7R


STATION/POSITION TIME  TEMP    WIND        PRES    WAVE   SWELL
                       AIR SEA DIR/SP/G            HT/PER HT/PER/DIR
                 (UTC) (F)     (DEG/KT/KT) (MB)    (FT/S) (FT/S/D)
5E ST. MARYS GA  1700      78                N/A     3/ 4
FRYING PAN BUOY  1710   73 76  230/ 23/ 29 1004.8
BUOY 41025       1650   76 78  240/ 25/ 29 1003.1R  10/ 8
CAPE LOOKOUT NC  1700   75     220/ 20/ 27 1002.7F
BUOY 41002       1650   77 76  180/ 21/ 27 1008.5F  10/ 8
BUOY 41010       1710   76 78  270/ 16/ 21 1010.8
ST AUGUSTINE FL  1700   76 76  280/ 15/ 20 1011.5F


$$




USA.gov is the U.S. government's official web portal to all federal, state and local government web resources and services.